Time,TemperatureF,DewpointF,PressureIn,WindDirection,WindDirectionDegrees,WindSpeedMPH,WindSpeedGustMPH,Humidity,HourlyPrecipIn,Conditions,Clouds,dailyrainin,SoftwareType,DateUTC
2013-01-01 00:00:00,30.8,24.0,29.36,WNW,292,2.0,6.0,79,0.00,,,0.00,Rainwise IP-100,2013-01-01 05:00:00,
2013-01-01 00:05:00,30.9,26.0,29.35,SW,225,2.0,6.0,80,0.00,,,0.00,Rainwise IP-100,2013-01-01 05:05:00,
2013-01-01 00:10:00,30.7,26.0,29.35,SSW,202,1.0,3.0,82,0.00,,,0.00,Rainwise IP-100,2013-01-01 05:10:00,
2013-01-01 00:15:00,30.2,26.0,29.35,South,180,1.0,2.0,84,0.00,,,0.00,Rainwise IP-100,2013-01-01 05:15:00,
2013-01-01 00:20:00,29.9,28.0,29.34,SE,135,2.0,3.0,86,0.00,,,0.00,Rainwise IP-100,2013-01-01 05:20:00,
2013-01-01 00:25:00,29.7,28.0,29.33,SE,135,1.0,3.0,87,0.00,,,0.00,Rainwise IP-100,2013-01-01 05:25:00,
2013-01-01 00:30:00,29.5,28.0,29.33,SE,135,1.0,3.0,88,0.00,,,0.00,Rainwise IP-100,2013-01-01 05:30:00,
2013-01-01 00:35:00,29.5,28.0,29.33,SE,135,2.0,4.0,88,0.00,,,0.00,Rainwise IP-100,2013-01-01 05:35:00,
2013-01-01 00:40:00,29.5,28.0,29.33,ESE,112,2.0,3.0,88,0.00,,,0.00,Rainwise IP-100,2013-01-01 05:40:00,
2013-01-01 00:45:00,29.5,28.0,29.32,SE,135,2.0,5.0,88,0.00,,,0.00,Rainwise IP-100,2013-01-01 05:45:00,
2013-01-01 00:50:00,29.7,28.0,29.32,ESE,112,2.0,4.0,88,0.00,,,0.00,Rainwise IP-100,2013-01-01 05:50:00,
2013-01-01 00:55:00,29.6,28.0,29.32,SSE,157,1.0,3.0,89,0.00,,,0.00,Rainwise IP-100,2013-01-01 05:55:00,
2013-01-01 01:00:00,29.4,26.0,29.31,SSE,157,1.0,4.0,90,0.00,,,0.00,Rainwise IP-100,2013-01-01 06:00:00,
2013-01-01 01:05:00,29.5,28.0,29.31,SE,135,2.0,4.0,90,0.00,,,0.00,Rainwise IP-100,2013-01-01 06:05:00,
2013-01-01 01:10:00,29.5,28.0,29.31,South,180,0.0,4.0,90,0.00,,,0.00,Rainwise IP-100,2013-01-01 06:10:00,
2013-01-01 01:15:00,29.5,28.0,29.31,SSW,202,2.0,2.0,90,0.00,,,0.00,Rainwise IP-100,2013-01-01 06:15:00,
2013-01-01 01:20:00,29.5,28.0,29.30,SW,225,0.0,3.0,90,0.00,,,0.00,Rainwise IP-100,2013-01-01 06:20:00,
2013-01-01 01:25:00,29.7,28.0,29.30,SSE,157,0.0,3.0,90,0.00,,,0.00,Rainwise IP-100,2013-01-01 06:25:00,
2013-01-01 01:30:00,29.6,28.0,29.30,SSW,202,1.0,5.0,90,0.00,,,0.00,Rainwise IP-100,2013-01-01 06:30:00,
2013-01-01 01:35:00,29.9,28.0,29.31,WSW,247,2.0,6.0,89,0.00,,,0.00,Rainwise IP-100,2013-01-01 06:35:00,
2013-01-01 01:40:00,30.3,28.0,29.31,WSW,247,2.0,6.0,88,0.00,,,0.00,Rainwise IP-100,2013-01-01 06:40:00,
2013-01-01 01:45:00,30.4,28.0,29.31,WSW,247,4.0,9.0,88,0.00,,,0.00,Rainwise IP-100,2013-01-01 06:45:00,
2013-01-01 01:50:00,30.5,28.0,29.31,SSW,202,1.0,6.0,87,0.00,,,0.00,Rainwise IP-100,2013-01-01 06:50:00,
2013-01-01 01:54:00,30.5,28.0,29.30,WSW,247,4.0,7.0,87,0.00,,,0.00,Rainwise IP-100,2013-01-01 06:54:00,
2013-01-01 01:59:00,30.6,28.0,29.30,WSW,247,5.0,9.0,86,0.00,,,0.00,Rainwise IP-100,2013-01-01 06:59:00,
2013-01-01 02:04:00,30.6,28.0,29.31,WSW,247,2.0,7.0,87,0.00,,,0.00,Rainwise IP-100,2013-01-01 07:04:00,
2013-01-01 02:09:00,30.6,28.0,29.30,WSW,247,2.0,9.0,87,0.00,,,0.00,Rainwise IP-100,2013-01-01 07:09:00,
2013-01-01 02:14:00,30.5,28.0,29.30,West,270,3.0,6.0,88,0.00,,,0.00,Rainwise IP-100,2013-01-01 07:14:00,
2013-01-01 02:19:00,30.6,28.0,29.30,SW,225,2.0,7.0,88,0.00,,,0.00,Rainwise IP-100,2013-01-01 07:19:00,
2013-01-01 02:24:00,30.6,28.0,29.30,WSW,247,2.0,8.0,88,0.00,,,0.00,Rainwise IP-100,2013-01-01 07:24:00,
2013-01-01 02:29:00,30.5,28.0,29.30,SW,225,1.0,7.0,90,0.00,,,0.00,Rainwise IP-100,2013-01-01 07:29:00,
2013-01-01 02:34:00,30.5,28.0,29.30,SW,225,10.0,10.0,90,0.00,,,0.00,Rainwise IP-100,2013-01-01 07:34:00,
2013-01-01 02:39:00,30.6,28.0,29.30,SW,225,2.0,11.0,90,0.00,,,0.00,Rainwise IP-100,2013-01-01 07:39:00,
2013-01-01 02:44:00,30.8,28.0,29.29,WSW,247,3.0,12.0,90,0.00,,,0.00,Rainwise IP-100,2013-01-01 07:44:00,
2013-01-01 02:49:00,30.8,28.0,29.29,WSW,247,5.0,9.0,90,0.00,,,0.00,Rainwise IP-100,2013-01-01 07:49:00,
2013-01-01 02:54:00,30.9,28.0,29.29,WSW,247,4.0,6.0,90,0.00,,,0.00,Rainwise IP-100,2013-01-01 07:54:00,
2013-01-01 02:59:00,31.1,28.0,29.29,WSW,247,2.0,9.0,90,0.00,,,0.00,Rainwise IP-100,2013-01-01 07:59:00,
2013-01-01 03:04:00,31.2,28.0,29.29,WSW,247,4.0,8.0,89,0.00,,,0.00,Rainwise IP-100,2013-01-01 08:04:00,
2013-01-01 03:09:00,31.3,28.0,29.29,SW,225,5.0,8.0,89,0.00,,,0.00,Rainwise IP-100,2013-01-01 08:09:00,
2013-01-01 03:14:00,31.4,28.0,29.29,WSW,247,2.0,8.0,89,0.00,,,0.00,Rainwise IP-100,2013-01-01 08:14:00,
2013-01-01 03:19:00,31.3,28.0,29.29,WSW,247,2.0,6.0,89,0.00,,,0.00,Rainwise IP-100,2013-01-01 08:19:00,
2013-01-01 03:24:00,31.5,29.0,29.29,WSW,247,4.0,7.0,89,0.00,,,0.00,Rainwise IP-100,2013-01-01 08:24:00,
2013-01-01 03:29:00,31.7,29.0,29.29,WNW,292,2.0,8.0,88,0.00,,,0.00,Rainwise IP-100,2013-01-01 08:29:00,
2013-01-01 03:34:00,31.8,29.0,29.28,WSW,247,4.0,6.0,89,0.00,,,0.00,Rainwise IP-100,2013-01-01 08:34:00,
2013-01-01 03:39:00,31.8,29.0,29.28,WSW,247,3.0,7.0,88,0.00,,,0.00,Rainwise IP-100,2013-01-01 08:39:00,
2013-01-01 03:44:00,31.8,29.0,29.28,West,270,4.0,6.0,89,0.00,,,0.00,Rainwise IP-100,2013-01-01 08:44:00,
2013-01-01 03:49:00,31.9,29.0,29.28,West,270,6.0,7.0,89,0.00,,,0.00,Rainwise IP-100,2013-01-01 08:49:00,
2013-01-01 03:54:00,31.9,29.0,29.29,West,270,5.0,7.0,89,0.00,,,0.00,Rainwise IP-100,2013-01-01 08:54:00,
2013-01-01 03:59:00,32.0,29.0,29.28,West,270,4.0,8.0,88,0.00,,,0.00,Rainwise IP-100,2013-01-01 08:59:00,
2013-01-01 04:02:00,32.1,29.0,29.28,WSW,247,7.0,8.0,88,0.00,,,0.00,Rainwise IP-100,2013-01-01 09:02:00,
2013-01-01 04:07:00,32.3,29.0,29.28,SW,225,5.0,7.0,88,0.00,,,0.00,Rainwise IP-100,2013-01-01 09:07:00,
2013-01-01 04:12:00,32.4,29.0,29.28,West,270,4.0,8.0,88,0.00,,,0.00,Rainwise IP-100,2013-01-01 09:12:00,
2013-01-01 04:17:00,32.4,29.0,29.27,WSW,247,5.0,8.0,87,0.00,,,0.00,Rainwise IP-100,2013-01-01 09:17:00,
2013-01-01 04:22:00,32.6,31.0,29.27,West,270,6.0,9.0,88,0.00,,,0.00,Rainwise IP-100,2013-01-01 09:22:00,
2013-01-01 04:27:00,32.6,31.0,29.27,WSW,247,4.0,8.0,88,0.00,,,0.00,Rainwise IP-100,2013-01-01 09:27:00,
2013-01-01 04:32:00,32.7,31.0,29.27,WSW,247,4.0,9.0,88,0.00,,,0.00,Rainwise IP-100,2013-01-01 09:32:00,
2013-01-01 04:37:00,32.6,31.0,29.27,WSW,247,4.0,8.0,87,0.00,,,0.00,Rainwise IP-100,2013-01-01 09:37:00,
2013-01-01 04:42:00,32.6,31.0,29.27,WSW,247,4.0,11.0,87,0.00,,,0.00,Rainwise IP-100,2013-01-01 09:42:00,
2013-01-01 04:47:00,32.5,29.0,29.28,WSW,247,4.0,11.0,86,0.00,,,0.00,Rainwise IP-100,2013-01-01 09:47:00,
2013-01-01 04:52:00,32.5,29.0,29.27,WSW,247,7.0,12.0,86,0.00,,,0.00,Rainwise IP-100,2013-01-01 09:52:00,
2013-01-01 04:57:00,32.4,28.0,29.27,WSW,247,3.0,11.0,85,0.00,,,0.00,Rainwise IP-100,2013-01-01 09:57:00,
2013-01-01 05:02:00,32.4,28.0,29.27,WSW,247,7.0,10.0,86,0.00,,,0.00,Rainwise IP-100,2013-01-01 10:02:00,
2013-01-01 05:07:00,32.4,28.0,29.27,WSW,247,9.0,11.0,86,0.00,,,0.00,Rainwise IP-100,2013-01-01 10:07:00,
2013-01-01 05:12:00,32.4,28.0,29.27,WSW,247,7.0,12.0,86,0.00,,,0.00,Rainwise IP-100,2013-01-01 10:12:00,
2013-01-01 05:17:00,32.4,29.0,29.27,West,270,6.0,11.0,87,0.00,,,0.00,Rainwise IP-100,2013-01-01 10:17:00,
2013-01-01 05:22:00,32.4,29.0,29.27,SW,225,5.0,12.0,88,0.00,,,0.00,Rainwise IP-100,2013-01-01 10:22:00,
2013-01-01 05:27:00,32.3,29.0,29.27,WSW,247,4.0,13.0,88,0.00,,,0.00,Rainwise IP-100,2013-01-01 10:27:00,
2013-01-01 05:32:00,32.3,29.0,29.27,West,270,3.0,8.0,89,0.00,,,0.00,Rainwise IP-100,2013-01-01 10:32:00,
2013-01-01 05:37:00,32.2,29.0,29.27,SSW,202,4.0,8.0,89,0.00,,,0.00,Rainwise IP-100,2013-01-01 10:37:00,
2013-01-01 05:42:00,32.3,29.0,29.27,WSW,247,2.0,8.0,89,0.00,,,0.00,Rainwise IP-100,2013-01-01 10:42:00,
2013-01-01 05:47:00,32.4,29.0,29.27,WSW,247,8.0,10.0,88,0.00,,,0.00,Rainwise IP-100,2013-01-01 10:47:00,
2013-01-01 05:52:00,32.6,29.0,29.28,West,270,6.0,11.0,86,0.00,,,0.00,Rainwise IP-100,2013-01-01 10:52:00,
2013-01-01 05:57:00,32.4,28.0,29.28,WSW,247,7.0,10.0,85,0.00,,,0.00,Rainwise IP-100,2013-01-01 10:57:00,
2013-01-01 06:02:00,32.4,28.0,29.28,West,270,7.0,11.0,85,0.00,,,0.00,Rainwise IP-100,2013-01-01 11:02:00,
2013-01-01 06:07:00,32.4,28.0,29.28,West,270,6.0,12.0,86,0.00,,,0.00,Rainwise IP-100,2013-01-01 11:07:00,
2013-01-01 06:12:00,32.5,29.0,29.29,WSW,247,11.0,11.0,85,0.00,,,0.00,Rainwise IP-100,2013-01-01 11:12:00,
2013-01-01 06:17:00,32.7,29.0,29.29,SW,225,9.0,12.0,85,0.00,,,0.00,Rainwise IP-100,2013-01-01 11:17:00,
2013-01-01 06:22:00,32.7,29.0,29.29,WSW,247,7.0,12.0,85,0.00,,,0.00,Rainwise IP-100,2013-01-01 11:22:00,
2013-01-01 06:27:00,32.7,29.0,29.29,West,270,6.0,13.0,85,0.00,,,0.00,Rainwise IP-100,2013-01-01 11:27:00,
2013-01-01 06:32:00,32.7,29.0,29.29,West,270,6.0,16.0,84,0.00,,,0.00,Rainwise IP-100,2013-01-01 11:32:00,
2013-01-01 06:37:00,32.7,28.0,29.29,West,270,9.0,11.0,81,0.00,,,0.00,Rainwise IP-100,2013-01-01 11:37:00,
2013-01-01 06:42:00,32.8,28.0,29.29,WNW,292,7.0,14.0,78,0.00,,,0.00,Rainwise IP-100,2013-01-01 11:42:00,
2013-01-01 06:47:00,32.8,28.0,29.29,WSW,247,11.0,13.0,78,0.00,,,0.00,Rainwise IP-100,2013-01-01 11:47:00,
2013-01-01 06:52:00,32.7,28.0,29.30,West,270,8.0,14.0,80,0.00,,,0.00,Rainwise IP-100,2013-01-01 11:52:00,
2013-01-01 06:57:00,32.7,28.0,29.30,West,270,9.0,12.0,81,0.00,,,0.00,Rainwise IP-100,2013-01-01 11:57:00,
2013-01-01 07:02:00,32.7,28.0,29.30,WSW,247,7.0,15.0,81,0.00,,,0.00,Rainwise IP-100,2013-01-01 12:02:00,
2013-01-01 07:07:00,32.8,28.0,29.30,West,270,6.0,11.0,79,0.00,,,0.00,Rainwise IP-100,2013-01-01 12:07:00,
2013-01-01 07:12:00,32.8,29.0,29.30,West,270,6.0,14.0,82,0.00,,,0.00,Rainwise IP-100,2013-01-01 12:12:00,
2013-01-01 07:17:00,32.6,29.0,29.30,SW,225,6.0,11.0,84,0.00,,,0.00,Rainwise IP-100,2013-01-01 12:17:00,
2013-01-01 07:22:00,32.4,28.0,29.30,WSW,247,9.0,12.0,85,0.00,,,0.00,Rainwise IP-100,2013-01-01 12:22:00,
2013-01-01 07:27:00,32.2,28.0,29.30,WSW,247,7.0,13.0,85,0.00,,,0.00,Rainwise IP-100,2013-01-01 12:27:00,
2013-01-01 07:32:00,31.9,28.0,29.30,West,270,9.0,14.0,81,0.00,,,0.00,Rainwise IP-100,2013-01-01 12:32:00,
2013-01-01 07:37:00,31.9,26.0,29.30,West,270,9.0,14.0,80,0.00,,,0.00,Rainwise IP-100,2013-01-01 12:37:00,
2013-01-01 07:42:00,31.9,26.0,29.31,WSW,247,9.0,13.0,80,0.00,,,0.00,Rainwise IP-100,2013-01-01 12:42:00,
2013-01-01 07:47:00,31.7,28.0,29.31,WNW,292,4.0,13.0,81,0.00,,,0.00,Rainwise IP-100,2013-01-01 12:47:00,
2013-01-01 07:52:00,31.5,26.0,29.31,WSW,247,6.0,12.0,80,0.00,,,0.00,Rainwise IP-100,2013-01-01 12:52:00,
2013-01-01 07:57:00,31.3,26.0,29.31,WSW,247,6.0,11.0,82,0.00,,,0.00,Rainwise IP-100,2013-01-01 12:57:00,
2013-01-01 08:02:00,31.1,26.0,29.31,WSW,247,4.0,12.0,81,0.00,,,0.00,Rainwise IP-100,2013-01-01 13:02:00,
2013-01-01 08:07:00,31.1,24.0,29.31,SW,225,4.0,12.0,79,0.00,,,0.00,Rainwise IP-100,2013-01-01 13:07:00,
2013-01-01 08:12:00,31.2,26.0,29.31,WSW,247,9.0,10.0,80,0.00,,,0.00,Rainwise IP-100,2013-01-01 13:12:00,
2013-01-01 08:17:00,31.3,26.0,29.31,WSW,247,8.0,11.0,82,0.00,,,0.00,Rainwise IP-100,2013-01-01 13:17:00,
2013-01-01 08:22:00,31.2,26.0,29.31,West,270,9.0,11.0,81,0.00,,,0.00,Rainwise IP-100,2013-01-01 13:22:00,
2013-01-01 08:27:00,31.2,24.0,29.31,WSW,247,5.0,11.0,79,0.00,,,0.00,Rainwise IP-100,2013-01-01 13:27:00,
2013-01-01 08:32:00,31.5,26.0,29.31,WSW,247,6.0,11.0,79,0.00,,,0.00,Rainwise IP-100,2013-01-01 13:32:00,
2013-01-01 08:37:00,31.8,26.0,29.32,West,270,6.0,10.0,80,0.00,,,0.00,Rainwise IP-100,2013-01-01 13:37:00,
2013-01-01 08:42:00,32.0,26.0,29.33,WSW,247,7.0,11.0,79,0.00,,,0.00,Rainwise IP-100,2013-01-01 13:42:00,
2013-01-01 08:47:00,31.9,26.0,29.33,West,270,6.0,9.0,78,0.00,,,0.00,Rainwise IP-100,2013-01-01 13:47:00,
2013-01-01 08:52:00,32.2,26.0,29.33,West,270,3.0,11.0,77,0.00,,,0.00,Rainwise IP-100,2013-01-01 13:52:00,
2013-01-01 08:57:00,32.1,26.0,29.33,WNW,292,4.0,11.0,77,0.00,,,0.00,Rainwise IP-100,2013-01-01 13:57:00,
2013-01-01 09:02:00,32.0,26.0,29.34,WSW,247,7.0,12.0,76,0.00,,,0.00,Rainwise IP-100,2013-01-01 14:02:00,
2013-01-01 09:07:00,32.0,24.0,29.34,WSW,247,7.0,11.0,74,0.00,,,0.00,Rainwise IP-100,2013-01-01 14:07:00,
2013-01-01 09:12:00,32.2,26.0,29.35,WSW,247,4.0,10.0,77,0.00,,,0.00,Rainwise IP-100,2013-01-01 14:12:00,
2013-01-01 09:17:00,32.2,24.0,29.34,WSW,247,3.0,10.0,74,0.00,,,0.00,Rainwise IP-100,2013-01-01 14:17:00,
2013-01-01 09:22:00,31.9,26.0,29.34,SW,225,6.0,12.0,76,0.00,,,0.00,Rainwise IP-100,2013-01-01 14:22:00,
2013-01-01 09:27:00,32.1,24.0,29.34,West,270,7.0,9.0,74,0.00,,,0.00,Rainwise IP-100,2013-01-01 14:27:00,
2013-01-01 09:32:00,32.1,24.0,29.34,West,270,6.0,14.0,74,0.00,,,0.00,Rainwise IP-100,2013-01-01 14:32:00,
2013-01-01 09:37:00,31.8,24.0,29.34,WSW,247,6.0,15.0,72,0.00,,,0.00,Rainwise IP-100,2013-01-01 14:37:00,
2013-01-01 09:42:00,32.2,26.0,29.34,WSW,247,7.0,10.0,75,0.00,,,0.00,Rainwise IP-100,2013-01-01 14:42:00,
2013-01-01 09:47:00,32.3,24.0,29.34,West,270,5.0,11.0,73,0.00,,,0.00,Rainwise IP-100,2013-01-01 14:47:00,
2013-01-01 09:52:00,32.4,24.0,29.34,WSW,247,9.0,9.0,74,0.06,,,0.01,Rainwise IP-100,2013-01-01 14:52:00,
2013-01-01 09:57:00,32.2,24.0,29.34,WSW,247,10.0,12.0,70,0.06,,,0.01,Rainwise IP-100,2013-01-01 14:57:00,
2013-01-01 10:02:00,32.1,24.0,29.34,WSW,247,4.0,13.0,70,0.00,,,0.01,Rainwise IP-100,2013-01-01 15:02:00,
2013-01-01 10:07:00,32.1,24.0,29.34,West,270,11.0,11.0,70,0.00,,,0.01,Rainwise IP-100,2013-01-01 15:07:00,
2013-01-01 10:12:00,32.6,26.0,29.34,WSW,247,6.0,11.0,72,0.00,,,0.01,Rainwise IP-100,2013-01-01 15:12:00,
2013-01-01 10:17:00,32.5,24.0,29.34,West,270,6.0,10.0,71,0.00,,,0.01,Rainwise IP-100,2013-01-01 15:17:00,
2013-01-01 10:22:00,32.0,23.0,29.34,West,270,6.0,11.0,66,0.00,,,0.01,Rainwise IP-100,2013-01-01 15:22:00,
2013-01-01 10:27:00,31.6,23.0,29.34,WSW,247,6.0,11.0,67,0.00,,,0.01,Rainwise IP-100,2013-01-01 15:27:00,
2013-01-01 10:32:00,31.5,23.0,29.34,West,270,7.0,11.0,68,0.00,,,0.01,Rainwise IP-100,2013-01-01 15:32:00,
2013-01-01 10:37:00,31.2,21.0,29.34,SSW,202,4.0,13.0,66,0.00,,,0.01,Rainwise IP-100,2013-01-01 15:37:00,
2013-01-01 10:42:00,31.2,23.0,29.34,WNW,292,6.0,12.0,68,0.00,,,0.01,Rainwise IP-100,2013-01-01 15:42:00,
2013-01-01 10:47:00,31.1,21.0,29.34,WSW,247,5.0,12.0,67,0.00,,,0.01,Rainwise IP-100,2013-01-01 15:47:00,
2013-01-01 10:52:00,30.9,23.0,29.34,West,270,7.0,11.0,69,0.00,,,0.01,Rainwise IP-100,2013-01-01 15:52:00,
2013-01-01 10:57:00,30.7,21.0,29.34,WSW,247,7.0,14.0,65,0.00,,,0.01,Rainwise IP-100,2013-01-01 15:57:00,
2013-01-01 11:02:00,30.6,21.0,29.34,WSW,247,6.0,11.0,65,0.00,,,0.01,Rainwise IP-100,2013-01-01 16:02:00,
2013-01-01 11:07:00,29.8,21.0,29.33,West,270,4.0,12.0,65,0.00,,,0.01,Rainwise IP-100,2013-01-01 16:07:00,
2013-01-01 11:12:00,30.0,21.0,29.33,West,270,4.0,11.0,64,0.00,,,0.01,Rainwise IP-100,2013-01-01 16:12:00,
2013-01-01 11:17:00,30.1,21.0,29.33,WNW,292,9.0,12.0,66,0.00,,,0.01,Rainwise IP-100,2013-01-01 16:17:00,
2013-01-01 11:22:00,30.1,21.0,29.33,WSW,247,7.0,12.0,63,0.00,,,0.01,Rainwise IP-100,2013-01-01 16:22:00,
2013-01-01 11:27:00,29.5,21.0,29.33,West,270,6.0,12.0,64,0.00,,,0.01,Rainwise IP-100,2013-01-01 16:27:00,
2013-01-01 11:32:00,29.4,21.0,29.33,SW,225,6.0,12.0,67,0.00,,,0.01,Rainwise IP-100,2013-01-01 16:32:00,
2013-01-01 11:37:00,28.5,16.0,29.33,WSW,247,7.0,16.0,59,0.00,,,0.01,Rainwise IP-100,2013-01-01 16:37:00,
2013-01-01 11:42:00,28.9,16.0,29.33,West,270,9.0,15.0,56,0.00,,,0.01,Rainwise IP-100,2013-01-01 16:42:00,
2013-01-01 11:47:00,29.0,16.0,29.33,WSW,247,12.0,12.0,57,0.00,,,0.01,Rainwise IP-100,2013-01-01 16:47:00,
2013-01-01 11:52:00,28.9,16.0,29.32,WSW,247,9.0,16.0,57,0.00,,,0.01,Rainwise IP-100,2013-01-01 16:52:00,
2013-01-01 11:57:00,28.9,16.0,29.33,WSW,247,7.0,12.0,57,0.00,,,0.01,Rainwise IP-100,2013-01-01 16:57:00,
2013-01-01 12:02:00,28.9,16.0,29.32,West,270,11.0,14.0,57,0.00,,,0.01,Rainwise IP-100,2013-01-01 17:02:00,
2013-01-01 12:07:00,28.6,16.0,29.32,WSW,247,9.0,16.0,59,0.00,,,0.01,Rainwise IP-100,2013-01-01 17:07:00,
2013-01-01 12:12:00,28.8,18.0,29.32,West,270,9.0,13.0,61,0.00,,,0.01,Rainwise IP-100,2013-01-01 17:12:00,
2013-01-01 12:17:00,28.7,16.0,29.31,West,270,9.0,15.0,59,0.00,,,0.01,Rainwise IP-100,2013-01-01 17:17:00,
2013-01-01 12:22:00,28.5,16.0,29.31,West,270,11.0,17.0,58,0.00,,,0.01,Rainwise IP-100,2013-01-01 17:22:00,
2013-01-01 12:27:00,28.3,14.0,29.31,West,270,9.0,14.0,55,0.00,,,0.01,Rainwise IP-100,2013-01-01 17:27:00,
2013-01-01 12:32:00,28.3,16.0,29.32,SW,225,6.0,12.0,58,0.00,,,0.01,Rainwise IP-100,2013-01-01 17:32:00,
2013-01-01 12:37:00,28.6,16.0,29.32,West,270,6.0,13.0,58,0.00,,,0.01,Rainwise IP-100,2013-01-01 17:37:00,
2013-01-01 12:42:00,28.2,16.0,29.32,WSW,247,7.0,14.0,57,0.00,,,0.01,Rainwise IP-100,2013-01-01 17:42:00,
2013-01-01 12:47:00,27.9,14.0,29.32,West,270,7.0,12.0,55,0.00,,,0.01,Rainwise IP-100,2013-01-01 17:47:00,
2013-01-01 12:52:00,28.0,14.0,29.32,WSW,247,7.0,12.0,56,0.00,,,0.01,Rainwise IP-100,2013-01-01 17:52:00,
2013-01-01 12:57:00,27.9,16.0,29.32,WNW,292,7.0,11.0,60,0.00,,,0.01,Rainwise IP-100,2013-01-01 17:57:00,
2013-01-01 13:02:00,27.9,16.0,29.32,West,270,6.0,11.0,57,0.00,,,0.01,Rainwise IP-100,2013-01-01 18:02:00,
2013-01-01 13:07:00,27.9,16.0,29.32,West,270,8.0,12.0,62,0.00,,,0.01,Rainwise IP-100,2013-01-01 18:07:00,
2013-01-01 13:12:00,27.9,16.0,29.31,West,270,9.0,12.0,60,0.00,,,0.01,Rainwise IP-100,2013-01-01 18:12:00,
2013-01-01 13:17:00,27.9,18.0,29.32,WSW,247,9.0,11.0,64,0.00,,,0.01,Rainwise IP-100,2013-01-01 18:17:00,
2013-01-01 13:22:00,27.9,16.0,29.32,SW,225,3.0,12.0,60,0.00,,,0.01,Rainwise IP-100,2013-01-01 18:22:00,
2013-01-01 13:27:00,27.9,16.0,29.32,West,270,4.0,11.0,58,0.00,,,0.01,Rainwise IP-100,2013-01-01 18:27:00,
2013-01-01 13:32:00,27.4,16.0,29.32,West,270,10.0,13.0,59,0.00,,,0.01,Rainwise IP-100,2013-01-01 18:32:00,
2013-01-01 13:37:00,27.6,16.0,29.32,WSW,247,9.0,14.0,60,0.00,,,0.01,Rainwise IP-100,2013-01-01 18:37:00,
2013-01-01 13:42:00,27.4,16.0,29.32,WSW,247,8.0,11.0,58,0.00,,,0.01,Rainwise IP-100,2013-01-01 18:42:00,
2013-01-01 13:47:00,27.1,14.0,29.32,WNW,292,6.0,13.0,55,0.00,,,0.01,Rainwise IP-100,2013-01-01 18:47:00,
2013-01-01 13:52:00,27.1,16.0,29.33,West,270,7.0,12.0,58,0.00,,,0.01,Rainwise IP-100,2013-01-01 18:52:00,
2013-01-01 13:57:00,27.0,16.0,29.33,West,270,9.0,10.0,58,0.00,,,0.01,Rainwise IP-100,2013-01-01 18:57:00,
2013-01-01 14:02:00,26.7,14.0,29.33,WSW,247,11.0,14.0,55,0.00,,,0.01,Rainwise IP-100,2013-01-01 19:02:00,
2013-01-01 14:07:00,26.8,16.0,29.33,West,270,6.0,12.0,58,0.00,,,0.01,Rainwise IP-100,2013-01-01 19:07:00,
2013-01-01 14:12:00,26.8,14.0,29.33,West,270,7.0,10.0,56,0.00,,,0.01,Rainwise IP-100,2013-01-01 19:12:00,
2013-01-01 14:17:00,26.7,16.0,29.33,WSW,247,6.0,11.0,63,0.00,,,0.01,Rainwise IP-100,2013-01-01 19:17:00,
2013-01-01 14:22:00,26.5,16.0,29.33,West,270,6.0,13.0,58,0.00,,,0.01,Rainwise IP-100,2013-01-01 19:22:00,
2013-01-01 14:27:00,26.6,16.0,29.33,WSW,247,9.0,10.0,60,0.00,,,0.01,Rainwise IP-100,2013-01-01 19:27:00,
2013-01-01 14:32:00,26.3,14.0,29.33,WSW,247,7.0,13.0,60,0.00,,,0.01,Rainwise IP-100,2013-01-01 19:32:00,
2013-01-01 14:37:00,25.9,14.0,29.34,WSW,247,6.0,12.0,55,0.00,,,0.01,Rainwise IP-100,2013-01-01 19:37:00,
2013-01-01 14:42:00,25.8,14.0,29.35,WSW,247,9.0,12.0,56,0.00,,,0.01,Rainwise IP-100,2013-01-01 19:42:00,
2013-01-01 14:47:00,25.4,11.0,29.36,WSW,247,4.0,12.0,52,0.00,,,0.01,Rainwise IP-100,2013-01-01 19:47:00,
2013-01-01 14:52:00,25.0,11.0,29.36,WSW,247,6.0,14.0,50,0.00,,,0.01,Rainwise IP-100,2013-01-01 19:52:00,
2013-01-01 14:57:00,25.0,14.0,29.36,West,270,7.0,9.0,56,0.00,,,0.01,Rainwise IP-100,2013-01-01 19:57:00,
2013-01-01 15:02:00,24.7,11.0,29.36,SW,225,7.0,12.0,53,0.00,,,0.01,Rainwise IP-100,2013-01-01 20:02:00,
2013-01-01 15:07:00,24.8,14.0,29.36,West,270,10.0,12.0,56,0.00,,,0.01,Rainwise IP-100,2013-01-01 20:07:00,
2013-01-01 15:12:00,24.6,14.0,29.36,West,270,5.0,12.0,58,0.00,,,0.01,Rainwise IP-100,2013-01-01 20:12:00,
2013-01-01 15:17:00,24.4,14.0,29.36,West,270,6.0,11.0,58,0.00,,,0.01,Rainwise IP-100,2013-01-01 20:17:00,
2013-01-01 15:22:00,23.9,11.0,29.36,SW,225,6.0,9.0,54,0.00,,,0.01,Rainwise IP-100,2013-01-01 20:22:00,
2013-01-01 15:27:00,23.9,14.0,29.36,WSW,247,5.0,9.0,62,0.00,,,0.01,Rainwise IP-100,2013-01-01 20:27:00,
2013-01-01 15:32:00,23.3,11.0,29.36,WSW,247,7.0,12.0,60,0.00,,,0.01,Rainwise IP-100,2013-01-01 20:32:00,
2013-01-01 15:37:00,22.9,11.0,29.36,West,270,6.0,11.0,60,0.00,,,0.01,Rainwise IP-100,2013-01-01 20:37:00,
2013-01-01 15:42:00,22.5,11.0,29.36,WSW,247,7.0,13.0,60,0.00,,,0.01,Rainwise IP-100,2013-01-01 20:42:00,
2013-01-01 15:47:00,22.4,11.0,29.36,West,270,7.0,12.0,59,0.00,,,0.01,Rainwise IP-100,2013-01-01 20:47:00,
2013-01-01 15:52:00,22.2,14.0,29.36,West,270,5.0,11.0,63,0.00,,,0.01,Rainwise IP-100,2013-01-01 20:52:00,
2013-01-01 15:57:00,22.3,14.0,29.36,WSW,247,6.0,11.0,65,0.00,,,0.01,Rainwise IP-100,2013-01-01 20:57:00,
2013-01-01 16:02:00,21.9,14.0,29.36,West,270,7.0,11.0,64,0.00,,,0.01,Rainwise IP-100,2013-01-01 21:02:00,
2013-01-01 16:07:00,21.9,14.0,29.35,WSW,247,7.0,11.0,65,0.00,,,0.01,Rainwise IP-100,2013-01-01 21:07:00,
2013-01-01 16:12:00,21.6,11.0,29.36,West,270,6.0,11.0,62,0.00,,,0.01,Rainwise IP-100,2013-01-01 21:12:00,
2013-01-01 16:17:00,21.6,14.0,29.36,WSW,247,9.0,10.0,66,0.00,,,0.01,Rainwise IP-100,2013-01-01 21:17:00,
2013-01-01 16:22:00,21.4,11.0,29.36,West,270,4.0,14.0,64,0.00,,,0.01,Rainwise IP-100,2013-01-01 21:22:00,
2013-01-01 16:27:00,21.2,11.0,29.37,West,270,2.0,11.0,64,0.00,,,0.01,Rainwise IP-100,2013-01-01 21:27:00,
2013-01-01 16:32:00,20.9,11.0,29.37,SW,225,4.0,11.0,63,0.00,,,0.01,Rainwise IP-100,2013-01-01 21:32:00,
2013-01-01 16:37:00,20.7,11.0,29.37,SW,225,2.0,11.0,64,0.00,,,0.01,Rainwise IP-100,2013-01-01 21:37:00,
2013-01-01 16:42:00,20.6,11.0,29.37,West,270,9.0,11.0,63,0.00,,,0.01,Rainwise IP-100,2013-01-01 21:42:00,
2013-01-01 16:47:00,20.4,11.0,29.37,WSW,247,7.0,12.0,63,0.00,,,0.01,Rainwise IP-100,2013-01-01 21:47:00,
2013-01-01 16:52:00,20.3,11.0,29.37,WSW,247,8.0,11.0,64,0.00,,,0.01,Rainwise IP-100,2013-01-01 21:52:00,
2013-01-01 16:57:00,19.9,11.0,29.38,WSW,247,4.0,13.0,63,0.00,,,0.01,Rainwise IP-100,2013-01-01 21:57:00,
2013-01-01 17:02:00,19.8,11.0,29.37,WSW,247,9.0,12.0,62,0.00,,,0.01,Rainwise IP-100,2013-01-01 22:02:00,
2013-01-01 17:07:00,19.9,14.0,29.37,WSW,247,5.0,11.0,69,0.00,,,0.01,Rainwise IP-100,2013-01-01 22:07:00,
2013-01-01 17:12:00,19.8,14.0,29.38,West,270,7.0,12.0,71,0.00,,,0.01,Rainwise IP-100,2013-01-01 22:12:00,
2013-01-01 17:17:00,19.7,14.0,29.38,West,270,4.0,11.0,69,0.00,,,0.01,Rainwise IP-100,2013-01-01 22:17:00,
2013-01-01 17:22:00,19.3,11.0,29.38,WSW,247,6.0,11.0,67,0.00,,,0.01,Rainwise IP-100,2013-01-01 22:22:00,
2013-01-01 17:27:00,19.1,11.0,29.38,West,270,4.0,13.0,68,0.00,,,0.01,Rainwise IP-100,2013-01-01 22:27:00,
2013-01-01 17:32:00,18.9,11.0,29.38,WSW,247,7.0,9.0,67,0.00,,,0.01,Rainwise IP-100,2013-01-01 22:32:00,
2013-01-01 17:37:00,18.9,11.0,29.37,West,270,4.0,12.0,66,0.00,,,0.01,Rainwise IP-100,2013-01-01 22:37:00,
2013-01-01 17:42:00,18.7,11.0,29.38,WSW,247,5.0,13.0,65,0.00,,,0.01,Rainwise IP-100,2013-01-01 22:42:00,
2013-01-01 17:47:00,18.7,11.0,29.38,West,270,11.0,13.0,68,0.00,,,0.01,Rainwise IP-100,2013-01-01 22:47:00,
2013-01-01 17:52:00,18.5,11.0,29.38,WSW,247,7.0,11.0,67,0.00,,,0.01,Rainwise IP-100,2013-01-01 22:52:00,
2013-01-01 17:57:00,18.5,14.0,29.38,WSW,247,7.0,11.0,69,0.00,,,0.01,Rainwise IP-100,2013-01-01 22:57:00,
2013-01-01 18:02:00,18.5,14.0,29.39,West,270,6.0,11.0,73,0.00,,,0.01,Rainwise IP-100,2013-01-01 23:02:00,
2013-01-01 18:07:00,18.2,11.0,29.39,West,270,7.0,14.0,70,0.00,,,0.01,Rainwise IP-100,2013-01-01 23:07:00,
2013-01-01 18:12:00,17.8,8.0,29.39,SW,225,9.0,14.0,64,0.00,,,0.01,Rainwise IP-100,2013-01-01 23:12:00,
2013-01-01 18:17:00,17.8,11.0,29.39,WSW,247,8.0,13.0,68,0.00,,,0.01,Rainwise IP-100,2013-01-01 23:17:00,
2013-01-01 18:22:00,17.8,11.0,29.39,WSW,247,6.0,16.0,72,0.00,,,0.01,Rainwise IP-100,2013-01-01 23:22:00,
2013-01-01 18:27:00,17.6,11.0,29.39,SW,225,8.0,11.0,70,0.00,,,0.01,Rainwise IP-100,2013-01-01 23:27:00,
2013-01-01 18:32:00,17.7,11.0,29.39,West,270,6.0,12.0,71,0.00,,,0.01,Rainwise IP-100,2013-01-01 23:32:00,
2013-01-01 18:37:00,17.3,11.0,29.39,West,270,7.0,12.0,72,0.00,,,0.01,Rainwise IP-100,2013-01-01 23:37:00,
2013-01-01 18:42:00,16.9,11.0,29.40,WSW,247,7.0,15.0,67,0.00,,,0.01,Rainwise IP-100,2013-01-01 23:42:00,
2013-01-01 18:47:00,17.1,11.0,29.39,WSW,247,8.0,11.0,73,0.00,,,0.01,Rainwise IP-100,2013-01-01 23:47:00,
2013-01-01 18:52:00,16.9,11.0,29.39,WSW,247,7.0,12.0,69,0.00,,,0.01,Rainwise IP-100,2013-01-01 23:52:00,
2013-01-01 18:57:00,16.6,11.0,29.40,West,270,11.0,12.0,70,0.00,,,0.01,Rainwise IP-100,2013-01-01 23:57:00,
2013-01-01 19:02:00,16.5,11.0,29.40,West,270,9.0,13.0,71,0.00,,,0.01,Rainwise IP-100,2013-01-02 00:02:00,
2013-01-01 19:07:00,16.5,11.0,29.40,WSW,247,6.0,16.0,72,0.00,,,0.01,Rainwise IP-100,2013-01-02 00:07:00,
2013-01-01 19:12:00,16.4,8.0,29.40,SE,135,3.0,14.0,72,0.00,,,0.01,Rainwise IP-100,2013-01-02 00:12:00,
2013-01-01 19:17:00,16.2,8.0,29.42,WSW,247,5.0,13.0,70,0.00,,,0.01,Rainwise IP-100,2013-01-02 00:17:00,
2013-01-01 19:22:00,16.2,8.0,29.41,West,270,8.0,11.0,72,0.00,,,0.01,Rainwise IP-100,2013-01-02 00:22:00,
2013-01-01 19:27:00,15.8,8.0,29.42,West,270,6.0,15.0,68,0.00,,,0.01,Rainwise IP-100,2013-01-02 00:27:00,
2013-01-01 19:32:00,15.6,8.0,29.42,West,270,7.0,15.0,68,0.00,,,0.01,Rainwise IP-100,2013-01-02 00:32:00,
2013-01-01 19:37:00,15.5,8.0,29.42,WNW,292,6.0,13.0,69,0.00,,,0.01,Rainwise IP-100,2013-01-02 00:37:00,
2013-01-01 19:42:00,15.5,11.0,29.42,SW,225,6.0,14.0,75,0.00,,,0.01,Rainwise IP-100,2013-01-02 00:42:00,
2013-01-01 19:47:00,15.3,8.0,29.43,West,270,6.0,11.0,72,0.00,,,0.01,Rainwise IP-100,2013-01-02 00:47:00,
2013-01-01 19:52:00,14.9,8.0,29.43,West,270,10.0,11.0,71,0.00,,,0.01,Rainwise IP-100,2013-01-02 00:52:00,
2013-01-01 19:57:00,14.8,8.0,29.43,WSW,247,7.0,12.0,71,0.00,,,0.01,Rainwise IP-100,2013-01-02 00:57:00,
2013-01-01 20:02:00,14.5,8.0,29.43,West,270,8.0,14.0,72,0.00,,,0.01,Rainwise IP-100,2013-01-02 01:02:00,
2013-01-01 20:07:00,14.3,8.0,29.44,WNW,292,4.0,14.0,71,0.00,,,0.01,Rainwise IP-100,2013-01-02 01:07:00,
2013-01-01 20:12:00,14.3,8.0,29.43,WNW,292,4.0,13.0,70,0.00,,,0.01,Rainwise IP-100,2013-01-02 01:12:00,
2013-01-01 20:17:00,13.9,8.0,29.44,West,270,10.0,12.0,70,0.00,,,0.01,Rainwise IP-100,2013-01-02 01:17:00,
2013-01-01 20:22:00,13.9,8.0,29.44,WSW,247,7.0,14.0,72,0.00,,,0.01,Rainwise IP-100,2013-01-02 01:22:00,
2013-01-01 20:27:00,14.2,8.0,29.44,SW,225,5.0,17.0,76,0.00,,,0.01,Rainwise IP-100,2013-01-02 01:27:00,
2013-01-01 20:32:00,13.6,8.0,29.44,SW,225,9.0,12.0,71,0.00,,,0.01,Rainwise IP-100,2013-01-02 01:32:00,
2013-01-01 20:37:00,13.3,8.0,29.44,WSW,247,7.0,14.0,71,0.00,,,0.01,Rainwise IP-100,2013-01-02 01:37:00,
2013-01-01 20:42:00,13.4,8.0,29.44,West,270,6.0,12.0,74,0.00,,,0.01,Rainwise IP-100,2013-01-02 01:42:00,
2013-01-01 20:47:00,13.2,8.0,29.44,WSW,247,7.0,12.0,73,0.00,,,0.01,Rainwise IP-100,2013-01-02 01:47:00,
2013-01-01 20:52:00,13.4,8.0,29.44,SW,225,6.0,11.0,76,0.00,,,0.01,Rainwise IP-100,2013-01-02 01:52:00,
2013-01-01 20:57:00,13.1,8.0,29.44,WSW,247,6.0,13.0,72,0.00,,,0.01,Rainwise IP-100,2013-01-02 01:57:00,
2013-01-01 21:02:00,13.2,8.0,29.44,WSW,247,8.0,12.0,73,0.00,,,0.01,Rainwise IP-100,2013-01-02 02:02:00,
2013-01-01 21:07:00,13.3,8.0,29.44,WSW,247,9.0,12.0,74,0.00,,,0.01,Rainwise IP-100,2013-01-02 02:07:00,
2013-01-01 21:12:00,13.2,8.0,29.44,WSW,247,7.0,15.0,72,0.00,,,0.01,Rainwise IP-100,2013-01-02 02:12:00,
2013-01-01 21:17:00,12.9,8.0,29.44,WSW,247,7.0,12.0,74,0.00,,,0.01,Rainwise IP-100,2013-01-02 02:17:00,
2013-01-01 21:22:00,12.9,8.0,29.44,West,270,6.0,11.0,76,0.00,,,0.01,Rainwise IP-100,2013-01-02 02:22:00,
2013-01-01 21:27:00,12.7,8.0,29.44,WSW,247,6.0,9.0,77,0.00,,,0.01,Rainwise IP-100,2013-01-02 02:27:00,
2013-01-01 21:32:00,12.7,8.0,29.44,West,270,6.0,9.0,77,0.00,,,0.01,Rainwise IP-100,2013-01-02 02:32:00,
2013-01-01 21:37:00,12.7,8.0,29.44,West,270,6.0,10.0,77,0.00,,,0.01,Rainwise IP-100,2013-01-02 02:37:00,
2013-01-01 21:42:00,12.6,8.0,29.44,WSW,247,7.0,11.0,76,0.00,,,0.01,Rainwise IP-100,2013-01-02 02:42:00,
2013-01-01 21:47:00,12.8,8.0,29.44,WSW,247,6.0,10.0,77,0.00,,,0.01,Rainwise IP-100,2013-01-02 02:47:00,
2013-01-01 21:52:00,12.5,8.0,29.44,WSW,247,6.0,11.0,73,0.00,,,0.01,Rainwise IP-100,2013-01-02 02:52:00,
2013-01-01 21:57:00,12.7,8.0,29.44,NNW,337,1.0,9.0,78,0.00,,,0.01,Rainwise IP-100,2013-01-02 02:57:00,
2013-01-01 22:02:00,12.5,8.0,29.44,WSW,247,7.0,9.0,75,0.00,,,0.01,Rainwise IP-100,2013-01-02 03:02:00,
2013-01-01 22:07:00,12.4,8.0,29.44,WSW,247,6.0,10.0,76,0.00,,,0.01,Rainwise IP-100,2013-01-02 03:07:00,
2013-01-01 22:12:00,12.4,8.0,29.44,WSW,247,8.0,10.0,77,0.00,,,0.01,Rainwise IP-100,2013-01-02 03:12:00,
2013-01-01 22:17:00,12.5,8.0,29.44,WSW,247,8.0,9.0,79,0.00,,,0.01,Rainwise IP-100,2013-01-02 03:17:00,
2013-01-01 22:22:00,12.5,8.0,29.44,West,270,5.0,12.0,79,0.00,,,0.01,Rainwise IP-100,2013-01-02 03:22:00,
2013-01-01 22:27:00,12.6,8.0,29.45,West,270,6.0,9.0,81,0.00,,,0.01,Rainwise IP-100,2013-01-02 03:27:00,
2013-01-01 22:32:00,12.5,8.0,29.44,WSW,247,9.0,11.0,81,0.00,,,0.01,Rainwise IP-100,2013-01-02 03:32:00,
2013-01-01 22:37:00,12.3,8.0,29.44,WSW,247,7.0,12.0,80,0.00,,,0.01,Rainwise IP-100,2013-01-02 03:37:00,
2013-01-01 22:42:00,12.2,8.0,29.44,WSW,247,9.0,13.0,79,0.00,,,0.01,Rainwise IP-100,2013-01-02 03:42:00,
2013-01-01 22:47:00,12.4,8.0,29.44,WSW,247,6.0,12.0,78,0.00,,,0.01,Rainwise IP-100,2013-01-02 03:47:00,
2013-01-01 22:52:00,12.5,8.0,29.44,WSW,247,6.0,11.0,77,0.00,,,0.01,Rainwise IP-100,2013-01-02 03:52:00,
2013-01-01 22:57:00,12.6,8.0,29.44,WSW,247,6.0,12.0,74,0.00,,,0.01,Rainwise IP-100,2013-01-02 03:57:00,
2013-01-01 23:02:00,12.6,8.0,29.44,North,360,2.0,11.0,77,0.00,,,0.01,Rainwise IP-100,2013-01-02 04:02:00,
2013-01-01 23:07:00,12.6,8.0,29.44,West,270,7.0,14.0,79,0.00,,,0.01,Rainwise IP-100,2013-01-02 04:07:00,
2013-01-01 23:12:00,12.7,8.0,29.44,West,270,6.0,14.0,77,0.00,,,0.01,Rainwise IP-100,2013-01-02 04:12:00,
2013-01-01 23:17:00,12.6,8.0,29.44,WSW,247,8.0,12.0,77,0.00,,,0.01,Rainwise IP-100,2013-01-02 04:17:00,
2013-01-01 23:22:00,12.6,8.0,29.44,WSW,247,5.0,11.0,76,0.00,,,0.01,Rainwise IP-100,2013-01-02 04:22:00,
2013-01-01 23:27:00,12.3,8.0,29.44,SW,225,7.0,11.0,74,0.00,,,0.01,Rainwise IP-100,2013-01-02 04:27:00,
2013-01-01 23:32:00,12.4,8.0,29.45,WSW,247,7.0,16.0,76,0.00,,,0.01,Rainwise IP-100,2013-01-02 04:32:00,
2013-01-01 23:37:00,12.6,8.0,29.44,WSW,247,6.0,11.0,77,0.00,,,0.01,Rainwise IP-100,2013-01-02 04:37:00,
2013-01-01 23:42:00,12.3,8.0,29.44,West,270,6.0,12.0,75,0.00,,,0.01,Rainwise IP-100,2013-01-02 04:42:00,
2013-01-01 23:47:00,12.2,8.0,29.44,WSW,247,7.0,12.0,74,0.00,,,0.01,Rainwise IP-100,2013-01-02 04:47:00,
2013-01-01 23:52:00,11.9,8.0,29.44,SW,225,8.0,12.0,73,0.00,,,0.01,Rainwise IP-100,2013-01-02 04:52:00,
2013-01-01 23:57:00,11.9,8.0,29.45,WSW,247,4.0,15.0,73,0.00,,,0.01,Rainwise IP-100,2013-01-02 04:57:00,